KLM313 LBSF-LBWN

Flight info

Callsign KLM313
Flight time 0h 49m
Altitude 31000
Route UMPIT DCT DICXA
Aircraft B738/M-SDE2E3FGHIRWXY/LB1

Departure

Time 2026-05-04 10:58
Airport Sofia Airport (LBSF)

Arrival

Time 2026-05-04 11:47
Airport Varna Airport (LBWN)
Time Latitude Longitude Altitude Speed Heading
2026-05-04 10:33 42.69060 23.41145 1747 ft 0 kts 340°
2026-05-04 10:45 42.69064 23.41143 1740 ft 2 kts 340°
2026-05-04 10:45 42.69082 23.41136 1743 ft 3 kts 344°
2026-05-04 10:45 42.69102 23.41131 1743 ft 3 kts 354°
2026-05-04 10:45 42.69110 23.41132 1747 ft 1 kts 15°
2026-05-04 10:46 42.69129 23.41139 1743 ft 1 kts 195°
2026-05-04 10:49 42.69112 23.41145 1747 ft 4 kts 134°
2026-05-04 10:50 42.69129 23.41167 1740 ft 4 kts
2026-05-04 10:51 42.69478 23.41431 1741 ft 13 kts 95°
2026-05-04 10:52 42.69471 23.41550 1747 ft 12 kts 93°
2026-05-04 10:52 42.69465 23.41666 1739 ft 12 kts 95°
2026-05-04 10:52 42.69454 23.41779 1748 ft 12 kts 99°
2026-05-04 10:54 42.69403 23.42677 1746 ft 15 kts 95°
2026-05-04 10:54 42.69395 23.42820 1745 ft 15 kts 94°
2026-05-04 10:56 42.69363 23.43931 1786 ft 12 kts 35°
2026-05-04 10:56 42.69445 23.43948 1784 ft 12 kts
2026-05-04 10:56 42.69507 23.43933 1783 ft 7 kts 319°
2026-05-04 10:57 42.69516 23.43896 1787 ft 0 kts 276°
2026-05-04 10:57 42.69535 23.43609 1748 ft 70 kts 275°
2026-05-04 10:57 42.69594 23.42598 1746 ft 142 kts 275°
2026-05-04 10:57 42.69698 23.40979 1819 ft 196 kts 277°
2026-05-04 10:58 42.69761 23.39037 2603 ft 209 kts 275°
2026-05-04 10:58 42.70092 23.37069 3105 ft 226 kts 306°
2026-05-04 10:58 42.71358 23.35682 3384 ft 250 kts 339°
2026-05-04 10:58 42.73053 23.34931 4114 ft 257 kts 351°
2026-05-04 10:59 42.74830 23.34601 5081 ft 257 kts 356°
2026-05-04 10:59 42.76596 23.34357 6038 ft 256 kts 356°
2026-05-04 10:59 42.78379 23.34094 6862 ft 259 kts 356°
2026-05-04 10:59 42.80182 23.33807 7589 ft 263 kts 356°
2026-05-04 11:00 42.82014 23.33498 8371 ft 267 kts 356°
2026-05-04 11:01 42.88483 23.44598 11261 ft 373 kts 120°
2026-05-04 11:02 42.86812 23.47387 11823 ft 383 kts 128°
2026-05-04 11:02 42.85015 23.50097 12499 ft 387 kts 128°
2026-05-04 11:05 42.71174 23.95809 19717 ft 426 kts 65°
2026-05-04 11:06 42.71981 23.98283 20112 ft 425 kts 65°
2026-05-04 11:06 42.73171 24.01985 20496 ft 429 kts 65°
2026-05-04 11:06 42.74349 24.05704 21126 ft 425 kts 66°
2026-05-04 11:06 42.75483 24.09324 22389 ft 405 kts 67°
2026-05-04 11:08 42.80354 24.31642 27548 ft 358 kts 80°
2026-05-04 11:10 42.84038 24.55467 29891 ft 379 kts 80°
2026-05-04 11:12 42.87963 24.80688 31124 ft 407 kts 80°
2026-05-04 11:12 42.88552 24.84507 31130 ft 413 kts 80°
2026-05-04 11:12 42.89746 24.92276 31127 ft 424 kts 80°
2026-05-04 11:13 42.90964 25.00233 31106 ft 432 kts 79°
2026-05-04 11:13 42.92186 25.08253 31111 ft 438 kts 79°
2026-05-04 11:14 42.93427 25.16441 31089 ft 444 kts 79°
2026-05-04 11:16 42.98387 25.49601 31090 ft 444 kts 80°
2026-05-04 11:16 42.99604 25.57858 31093 ft 442 kts 80°
2026-05-04 11:17 43.00814 25.66099 31098 ft 441 kts 80°
2026-05-04 11:19 43.05555 25.98814 30973 ft 438 kts 80°
2026-05-04 11:19 43.06143 26.02935 30222 ft 440 kts 80°
2026-05-04 11:19 43.06722 26.06973 29361 ft 437 kts 79°
2026-05-04 11:20 43.07317 26.11094 28448 ft 438 kts 79°
2026-05-04 11:20 43.07890 26.15138 27540 ft 439 kts 79°
2026-05-04 11:20 43.08468 26.19249 26542 ft 442 kts 79°
2026-05-04 11:20 43.09050 26.23391 25664 ft 444 kts 78°
2026-05-04 11:22 43.13020 26.51838 20567 ft 425 kts 76°
2026-05-04 11:22 43.13569 26.55806 19869 ft 422 kts 75°
2026-05-04 11:23 43.14116 26.59739 19166 ft 420 kts 75°
2026-05-04 11:23 43.14654 26.63652 18454 ft 419 kts 75°
2026-05-04 11:24 43.17732 26.86223 14350 ft 372 kts 76°
2026-05-04 11:25 43.18198 26.89685 13706 ft 368 kts 76°
2026-05-04 11:25 43.18662 26.93140 12999 ft 368 kts 76°
2026-05-04 11:25 43.19122 26.96575 12325 ft 366 kts 76°
2026-05-04 11:26 43.20033 27.03396 11187 ft 359 kts 76°
2026-05-04 11:27 43.19085 27.24132 10289 ft 285 kts 90°
2026-05-04 11:28 43.18903 27.26772 10161 ft 273 kts 89°
2026-05-04 11:28 43.18733 27.29315 10059 ft 264 kts 89°
2026-05-04 11:28 43.18572 27.31794 9876 ft 259 kts 89°
2026-05-04 11:28 43.18410 27.34232 9620 ft 256 kts 89°
2026-05-04 11:29 43.18249 27.36650 9332 ft 255 kts 89°
2026-05-04 11:29 43.18087 27.39065 9044 ft 253 kts 89°
2026-05-04 11:29 43.17926 27.41433 8923 ft 247 kts 89°
2026-05-04 11:29 43.17765 27.43776 8826 ft 248 kts 89°
2026-05-04 11:31 43.16597 27.60672 8123 ft 253 kts 89°
2026-05-04 11:33 43.15235 27.77598 7391 ft 257 kts 90°
2026-05-04 11:33 43.15018 27.80033 7279 ft 257 kts 90°
2026-05-04 11:33 43.14802 27.82455 7186 ft 256 kts 90°
2026-05-04 11:34 43.14585 27.84883 7092 ft 257 kts 90°
2026-05-04 11:34 43.14367 27.87313 6976 ft 257 kts 90°
2026-05-04 11:34 43.14150 27.89738 6874 ft 257 kts 90°
2026-05-04 11:34 43.13933 27.92164 6756 ft 257 kts 90°
2026-05-04 11:35 43.13715 27.94577 6696 ft 255 kts 90°
2026-05-04 11:35 43.13513 27.96824 6583 ft 256 kts 90°
2026-05-04 11:35 43.13306 27.99091 6463 ft 247 kts 90°
2026-05-04 11:35 43.13096 28.01363 6350 ft 236 kts 90°
2026-05-04 11:36 43.12897 28.03530 6246 ft 228 kts 90°
2026-05-04 11:36 43.12705 28.05660 6167 ft 225 kts 90°
2026-05-04 11:36 43.12516 28.07757 6093 ft 226 kts 90°
2026-05-04 11:36 43.12322 28.09909 6011 ft 230 kts 90°
2026-05-04 11:37 43.12121 28.12126 5905 ft 233 kts 90°
2026-05-04 11:37 43.11919 28.14319 5807 ft 232 kts 90°
2026-05-04 11:37 43.11720 28.16476 5714 ft 231 kts 90°
2026-05-04 11:37 43.11519 28.18650 5629 ft 230 kts 91°
2026-05-04 11:38 43.11315 28.20856 5521 ft 230 kts 90°
2026-05-04 11:38 43.11117 28.22991 5433 ft 230 kts 91°
2026-05-04 11:38 43.10915 28.25162 5343 ft 230 kts 90°
2026-05-04 11:38 43.10716 28.27327 5252 ft 229 kts 89°
2026-05-04 11:39 43.10912 28.29410 5127 ft 216 kts 57°
2026-05-04 11:39 43.11863 28.30898 5086 ft 206 kts 31°
2026-05-04 11:40 43.19031 28.28495 4586 ft 233 kts 286°
2026-05-04 11:41 43.19251 28.26280 4499 ft 236 kts 283°
2026-05-04 11:41 43.19450 28.24040 4391 ft 236 kts 282°
2026-05-04 11:41 43.19644 28.21808 4276 ft 235 kts 283°
2026-05-04 11:41 43.19842 28.19609 4186 ft 231 kts 283°
2026-05-04 11:42 43.20040 28.17437 4092 ft 228 kts 283°
2026-05-04 11:42 43.20239 28.15284 4004 ft 228 kts 283°
2026-05-04 11:42 43.20454 28.13104 3739 ft 235 kts 284°
2026-05-04 11:42 43.20685 28.10898 3442 ft 233 kts 284°
2026-05-04 11:43 43.20912 28.08722 3155 ft 228 kts 283°
2026-05-04 11:43 43.21134 28.06586 2848 ft 223 kts 283°
2026-05-04 11:43 43.21333 28.04513 2658 ft 214 kts 281°
2026-05-04 11:43 43.21478 28.02499 2493 ft 209 kts 281°
2026-05-04 11:44 43.21610 28.00577 2331 ft 194 kts 280°
2026-05-04 11:44 43.21732 27.98809 2173 ft 180 kts 281°
2026-05-04 11:44 43.21854 27.97101 2090 ft 190 kts 280°
2026-05-04 11:44 43.22002 27.95276 1957 ft 195 kts 280°
2026-05-04 11:45 43.22122 27.93491 1813 ft 180 kts 280°
2026-05-04 11:45 43.22216 27.91866 1756 ft 164 kts 280°
2026-05-04 11:45 43.22309 27.90345 1505 ft 157 kts 283°
2026-05-04 11:45 43.22467 27.88879 1252 ft 146 kts 288°
2026-05-04 11:46 43.22689 27.87595 1055 ft 145 kts 289°
2026-05-04 11:46 43.22883 27.86231 681 ft 145 kts 282°
2026-05-04 11:46 43.22976 27.84872 417 ft 136 kts 283°
2026-05-04 11:46 43.23103 27.83589 239 ft 136 kts 281°
2026-05-04 11:47 43.23216 27.82401 228 ft 107 kts 275°
2026-05-04 11:47 43.23244 27.81902 226 ft 32 kts 277°
2026-05-04 11:47 43.23313 27.81720 226 ft 12 kts 315°
2026-05-04 11:47 43.23375 27.81648 225 ft 12 kts 326°
2026-05-04 11:48 43.23449 27.81625 225 ft 11 kts
2026-05-04 11:48 43.23506 27.81681 225 ft 10 kts 56°
2026-05-04 11:48 43.23519 27.81774 225 ft 10 kts 89°
2026-05-04 11:48 43.23509 27.81867 228 ft 10 kts 104°
2026-05-04 11:49 43.23498 27.81956 226 ft 9 kts 98°
2026-05-04 11:49 43.23490 27.82046 227 ft 10 kts 96°
2026-05-04 11:49 43.23483 27.82141 227 ft 10 kts 97°
2026-05-04 11:49 43.23480 27.82234 227 ft 10 kts 87°
2026-05-04 11:50 43.23481 27.82295 228 ft 9 kts 94°
2026-05-04 11:50 43.23473 27.82383 228 ft 9 kts 99°
2026-05-04 11:50 43.23464 27.82469 228 ft 9 kts 98°
2026-05-04 11:50 43.23457 27.82546 229 ft 7 kts 89°
2026-05-04 11:51 43.23480 27.82598 230 ft 7 kts 40°
2026-05-04 11:51 43.23502 27.82623 229 ft 0 kts 38°